TITAN 3C TRANSTAGE DEB, 19595

Orbit data source: Space-Track

TITAN 3C TRANSTAGE DEB, 19595 is space debris in HEO originally from a launch on Tue, 21 Dec 1965 UTC launched from the Air Force Eastern Test Range (AFETR). Debris objects in space refer to the collection of defunct objects orbiting the Earth. Examples of debris include non-operational satellites, rocket bodies, and fragments generated from explosions, collisions, or faulty payload assembly.

Loading next visibility...
Identifier
19595, 1965-108AB
Orbit
HEO
Last TLE update
2 days ago
Origin
Manufacturer
Unknown
Mission
Spacecraft
Bus & Motor
Unknown
Mass
Unknown
Launch date (UTC)
1965-12-21 (60 years ago)
Launch vehicle
Unknown
Launch site
Air Force Eastern Test Range (AFETR)
Object type
Payload
Rocket body
Debris
Shape & HBR
Unknown
Radar Cross Section
Small (<0.1 m²)

Expand to show TLE details & history

TLE from 2 days ago
0 TITAN 3C TRANSTAGE DEB
1 19595U 65108AB  25179.86305656  .00003325  00000-0  30102-2 0  9993
2 19595  26.9963  48.2167 5966675 111.3063 319.9495  3.99797306182838
Epoch: 2025-06-28T20:42Z
TLE epoch observation values (Epoch: 2025-06-28T20:42:48.086Z)
Latitude
-0.00006°
Longitude
-179.65868°
Altitude
7,393.369 km
Speed
5.841 km/s
True Right ascension
03h 12m 56s
True Declination
0° 00' 00"
Sunlit
Object was in daylight at epoch
Visualization orbit readout
Latitude
-5.65886°
Longitude
167.33348°
Altitude
10,418.207 km
Speed
4.868 km/s
Apparent Right ascension
03h 25m 01s
Apparent Declination
-17° 54' 37"
Sunlit
Object is in daylight
Visualization observer readout
Local Sidereal Time
20:06:40
Azimuth
91.99° ESE
Elevation
-26.234°
Doppler factor
1
Orbital elements
Apogee altitude
20,402.092 km
Perigee altitude
386.789 km
Semi-major axis
16,772.577 km
Eccentricity
0.59667
Inclination
26.9963°
RAAN
48.2167°
Arg. of periapsis
111.3063°
True anomaly
Unknown
Mean anomaly
319.9495°
Eccentric anomaly
Unknown
Mean motion
0.99918 °/min
Orbital period
360.3 mins
BSTAR
0.0030102
Loading maneuver chart data...
Loading SW <> Apogee altitude chart data...

TITAN 3C TRANSTAGE DEB Visibility forecast

Observer location: undefined°, undefined°

Span
Click to sort rows by Start time (UTC) header in descending order
Start Az.
Max El. time (UTC)
Max El. Az.
Max El.
End time (UTC)
End Az.
157 mins2025-07-01 12:25:32.513Z197.351° SSW2025-07-01 14:40:32.513Z164.66° S23.059°2025-07-01 15:02:32.513Z119.669° SE
5 mins2025-07-01 21:15:32.513Z231.767° WSW2025-07-01 21:18:32.513Z197.693° SSW17.383°2025-07-01 21:20:32.513Z159.926° S
|